Location: *
(46.1833°N, 22.7667°E)
Time: 21:45:20
(UTC+00:00)

Lacrosse 4 Rocket - Pass Details

Date: 17 September 2019
Orbit: 544 x 615 km, 68.0° (Epoch: 16 October)

Event Time Altitude Azimuth Distance (km) Brightness Sun altitude
Rises 17:43:14 0° 309° (NW) 2,722 6.2 -12.0°
Reaches altitude 10° 17:46:41 10° 278° (W) 1,816 5.4 -12.6°
Maximum altitude 17:48:14 12° 255° (WSW) 1,687 4.7 -12.9°
Drops below altitude 10° 17:49:47 10° 233° (SW) 1,808 4.4 -13.1°
Sets 17:53:13 0° 201° (SSW) 2,695 4.9 -13.7°
